Location: *
(49.3500°N, 12.6000°E)
Time: 20:22:26
(UTC+00:00)

Cosmos 2151 - Pass Details

Date: 18 October 2019
Orbit: 582 x 601 km, 82.5° (Epoch: 18 November)

Event Time Altitude Azimuth Distance (km) Brightness Sun altitude
Rises 18:49:19 0° 351° (N) 2,860 6.8 -25.8°
Reaches altitude 10° 18:51:33 10° 353° (N) 1,954 5.9 -26.2°
Enters shadow 18:53:50 31° 357° (N) 1,072 4.4 -26.5°
